Heat Index [SAI AWOS/ASOS Display]_________FAA Disclaimer: "Not for use in aviation at this time______________" Untitled Document
Auglaize County Neil Armstrong Airport (AXV)
300
19:11
17/06/27
09
N/A
N/A
30.13
N/A
912
70(F), 21(C)
26(F), -3(C)
71 F
20%
CLR
7
N/A
N/A
N/A
19:11 zulu Wind 300 at 09 Knots, Altimeter 30.13
METAR KAXV 271911Z AUTO 30009KT 7SM CLR 21/M04 A3013 A02
METAR:
FAA Disclaimer--Advisory Use ONLY, not for flight info-- 3/04/2009: Welcome to the Neil Armstong AXV Graphical AWOS Display, if you find this information useful, please call the airport manager at 419-753-2810. New URL for AWOS smartphone display is http://www.saiawos2.com/AXV
INFO:
Wind Direction:
Wind Speed:
Wind Gust:
Wind Variable:
Altimeter:
Dens Alt:
Elev:
Temp:
Dwpt:
Wind Chill
Rel Humidity:
Ceiling:
Visibility:
Prsnt Wea:
PCPN:
Remarks:
How to read the WebPage